AirNav   Everest Fuels
 
 531 users online  

M90 William Robert Johnston Municipal Airport
Mendota, California, USA

GOING TO MENDOTA?


FAA INFORMATION EFFECTIVE 16 JULY 2020

Location

FAA Identifier: M90
Lat/Long: 36-45-31.0000N 120-22-17.0000W
36-45.516667N 120-22.283333W
36.7586111,-120.3713889
(estimated)
Elevation: 162 ft. / 49 m (estimated)
Variation: 15E (1985)
Time zone: UTC -7 (UTC -8 during Standard Time)
Zip code: 93640

Airport Operations

Airport use: Open to the public
Activation date: 08/1957
Control tower: no
ARTCC: OAKLAND CENTER
FSS: RANCHO MURIETA FLIGHT SERVICE STATION
NOTAMs facility: RIU (NOTAM-D service available)
Attendance: UNATNDD
Wind indicator: yes
Segmented circle: yes

Airport Communications

CTAF: 122.9
WX ASOS at MAE (18 nm NE): 134.725 (559-674-1781)

Nearby radio navigation aids

VOR radial/distance  VOR name  Freq  Var
PXNr066/19.8PANOCHE VORTAC112.6016E
HYPr162/27.7EL NIDO VOR/DME114.2015E
ROMr005/(39.7)PRIEST VOR110.0016E

Airport Services

Parking: tiedowns

Runway Information

Runway 15/33

Dimensions: 3499 x 50 ft. / 1066 x 15 m
Surface: asphalt, in fair condition
Weight bearing capacity: 
Single wheel: 12.5
RUNWAY 15  RUNWAY 33
Latitude: 36-45.798333N36-45.251500N
Longitude: 120-22.404667W120-22.177167W
Traffic pattern: leftright
Displaced threshold: no777 ft.
Markings: basic, in fair conditionbasic, in fair condition
Runway end identifier lights: nono
Obstructions: none17 ft. bldg, 423 ft. from runway, 190 ft. left of centerline, 13:1 slope to clear
APCH RATIO TO DSPLCD THR 50:1.

Airport Ownership and Management from official FAA records

Ownership: Publicly-owned
Owner: CITY OF MENDOTA
643 QUINCE ST
MENDOTA, CA 93640-2334
Phone 559-655-4298
Manager: CRISTIAN GONZALES
643 QUINCE ST
MENDOTA, CA 93640-2334
Phone (559) 655-4298
CITY MANAGER X 109.

Airport Operational Statistics

Aircraft operations: avg 77/week *
50% transient general aviation
50% local general aviation
* for 12-month period ending 12 April 2019

Additional Remarks

ARPT CLSD NIGHTS.
FOR CD CTC NORCAL APCH AT 916-361-0516.
PARL TWY ROUGH/UNEVEN SFC; EXTSV ASPH RPR AND PATCHING.

Instrument Procedures

There are no published instrument procedures at M90.

Some nearby airports with instrument procedures:

F34 - Firebaugh Airport (8 nm NW)
KMAE - Madera Municipal Airport (18 nm NE)
KFCH - Fresno Chandler Executive Airport (27 nm E)
KLSN - Los Banos Municipal Airport (30 nm NW)
KFAT - Fresno Yosemite International Airport (31 nm E)
 
Loc | Ops | Rwys | IFR | FBO | Links
Com | Nav | Svcs | Stats | Notes
Area around M90 (William Robert Johnston Municipal Airport)
 
Road maps at: MapQuest Bing Google
 
Aerial photo
WARNING: Photo may not be current or correct
Aerial photo of M90 (William Robert Johnston Municipal Airport)
Do you have a better or more recent aerial photo of William Robert Johnston Municipal Airport that you would like to share? If so, please send us your photo.

 
Sectional chart

 
Airport distance calculator
Flying to William Robert Johnston Municipal Airport? Find the distance to fly.

From to M90

Sunrise and sunset
Times for 04-Aug-2020
 Local
(UTC-7)
 Zulu
(UTC)
Morning civil twilight05:4312:43
Sunrise06:1113:11
Sunset20:0303:03
Evening civil twilight20:3203:32

Current date and time
Zulu (UTC)  05-Aug-2020 05:22:45
Local (UTC-7)  04-Aug-2020 22:22:45
 
METAR
KMAE 
18nm NE 
050453Z AUTO 29007KT 10SM CLR 23/13 A2988 RMK AO2 SLP115 T02280133
KFAT 
32nm E 
050453Z 31012KT 10SM CLR 28/12 A2986 RMK AO2 SLP107 T02830117
KMCE 
32nm N 
050453Z AUTO 26004KT 10SM CLR 22/13 A2987 RMK AO2 SLP113 T02220133
KNLC 
33nm SE 
050456Z 33011KT 10SM CLR 28/12 A2986 RMK AO2 SLP109 RH/36 T02780117
TAF
KFAT 
32nm E 
050405Z 0504/0524 32007KT P6SM SKC TEMPO 0505/0509 32011G19KT
KMCE 
32nm N 
041722Z 0418/0518 30007KT P6SM SKC FM050200 31010G15KT P6SM SKC
KNLC 
33nm SE 
0423/0523 03009KT 9999 SKC QNH2977INS TEMPO 0500/0506 34010KT FM050700 31010KT 9999 SKC QNH2975INS T16/0514Z T34/0523Z FS30012
KMER 
39nm N 
041722Z 0418/0518 30007KT P6SM SKC FM050200 31010G15KT P6SM SKC
NOTAMs
Click for the latest NOTAMs
NOTAMs are issued by the DoD/FAA and will open in a separate window not controlled by AirNav.

 

 
 

Would you like to see your business listed on this page?

 If your business provides an interesting product or service to pilots, flight crews, aircraft, or users of the William Robert Johnston Municipal Airport, you should consider listing it here.  To start the listing process, click on the button below
 
Add a business
 

Other Pages about William Robert Johnston Municipal Airport

Update a link
 
Copyright © AirNav, LLC. All rights reserved. Privacy Policy  Contact